Regional Weather Roundup
Issued by NWS

Home | Current Version | Previous Version | Text Only | Print | Product List | Glossary Off
Versions: 1 2 3 4 5 6 7 8 9 10 11 12 13 14 15 16 17 18 19 20 21 22 23 24 25 26 27 28 29 30 31 32 33 34 35 36 37 38 39 40 41 42 43 44 45 46 47 48 49 50

000
ASUS45 KABQ 281510
RWRNM
WEATHER ROUNDUP FOR NEW MEXICO
NATIONAL WEATHER SERVICE ALBUQUERQUE NM
900 AM MDT SAT MAR 28 2015

NOTE: "FAIR" MEANS FEW OR NO CLOUDS BELOW 12,000 FEET AGL WITH NO
       SIGNIFICANT WEATHER OR OBSTRUCTIONS TO VISION.

      THIS PRODUCT IS RELEASED AS TWO VERSIONS.  ONE VERSION NEAR
      THE TOP OF THE HOUR CONTAINING PRELIMINARY DATA FROM ALBUQUERQUE
      AND OTHER STATIONS.  A FINAL VERSION WITH ADDITIONAL DATA IS
      ISSUED ABOUT 10 MINUTES AFTER THE HOUR.

NMZ501-503-504-510>518-281600-
NORTHWEST PLATEAU/NORTHCENTRAL MOUNTAINS

CITY           SKY/WX    TMP DP  RH WIND       PRES   REMARKS
FARMINGTON     SUNNY     44  24  45 E7        30.25S
LOS ALAMOS     SUNNY     50  24  35 E3        30.32R
SANTA FE       SUNNY     53  23  31 N12       30.27S
TAOS           SUNNY     43  25  49 N5        30.32R
ANGEL FIRE     FAIR      35  26  71 CALM      30.35S

$$
NMZ402-403-502-505>509-281600-
WESTCENTRAL MOUNTAINS/SOUTHWEST MOUNTAINS

CITY           SKY/WX    TMP DP  RH WIND       PRES   REMARKS
GALLUP         SUNNY     43  18  36 NE3       30.33S
GRANTS         SUNNY     41  19  41 NW6       30.34R
SILVER CITY    SUNNY     61  19  20 NW7       30.28S

$$
NMZ407-409-411-412-281600-
SOUTHERN DESERTS

CITY           SKY/WX    TMP DP  RH WIND       PRES   REMARKS
LORDSBURG      FAIR      52  21  30 CALM      30.24R
DEMING         SUNNY     53  21  28 SW5       30.22R
LAS CRUCES     SUNNY     62  17  18 NE3       30.23R
HOLLOMAN AFB   MOSUNNY   60  20  20 CALM      30.19R
ALAMOGORDO     MOSUNNY   61  18  18 MISG      30.20S
T OR C         SUNNY     64  16  15 NE3       30.23R

$$
NMZ519>523-281600-
CENTRAL VALLEYS/CENTRAL HIGHLANDS

CITY           SKY/WX    TMP DP  RH WIND       PRES   REMARKS
ALBUQUERQUE    SUNNY     53  21  28 W6        30.26R
DOUBLE EAGLE   SUNNY     55  21  26 VRB5      30.28R
MORIARTY ARPT  FAIR      53  19  26 CALM      30.29R
CLINES CORNERS SUNNY     56  22  26 NW10      30.27R
BELEN          FAIR      57  20  23 CALM      30.26R
SOCORRO        FAIR      57  19  23 CALM      30.25R

$$
NMZ524>526-539-540-281600-
SOUTHCENTRAL MOUNTAINS

CITY           SKY/WX    TMP DP  RH WIND       PRES   REMARKS
RUIDOSO        SUNNY     61  18  18 NW9       30.30S

$$
NMZ527>531-281600-
NORTHEAST HIGHLANDS/NORTHEAST PLAINS

CITY           SKY/WX    TMP DP  RH WIND       PRES   REMARKS
LAS VEGAS      SUNNY     58  22  24 NW7       30.26S
RATON          SUNNY     49  27  42 E10       30.21S
CLAYTON        SUNNY     69  30  23 NW13      30.12R

$$
NMZ532>537-281600-
EASTCENTRAL PLAINS

CITY           SKY/WX    TMP DP  RH WIND       PRES   REMARKS
TUCUMCARI      SUNNY     59  30  33 W12       30.11S
CANNON AFB     SUNNY     62  31  30 N16       30.10R
CLOVIS AIRPORT SUNNY     61  34  36 NW17      30.10R

$$
NMZ028-029-538-281600-
SOUTHEAST PLAINS

CITY           SKY/WX    TMP DP  RH WIND       PRES   REMARKS
ROSWELL        SUNNY     59  30  33 N6        30.12S
ARTESIA        SUNNY     57  30  35 N7        30.13R
CARLSBAD       SUNNY     60  33  36 N3        30.10R
HOBBS          SUNNY     63  30  29 SW8       30.10S


$$



USA.gov is the U.S. government's official web portal to all federal, state and local government web resources and services.